EW7112 Weather Reports


Display with metric or nautical units.
time (UTC)temp
F
wind
direction
speed
MPH
gust
MPH
rain 1hr
in
rain 24hr
in
rain mn
in
humidity
%
barometer
mb
20260906151602 88 94 1.0 5.0 0.00 0.00 0.00 66 991.8
20260906150056 87 91 3.0 6.0 0.00 0.00 0.00 67 991.7
20260906144552 87 98 1.0 5.0 0.00 0.00 0.00 68 991.6
20260906143052 86 114 1.0 4.0 0.00 0.00 0.00 70 991.6
20260906141546 85 94 1.0 4.0 0.00 0.00 0.00 71 991.7
20260906140053 84 126 1.0 3.0 0.00 0.00 0.00 74 991.8
20260906134542 82 87 1.0 3.0 0.00 0.00 0.00 77 991.8
20260906133040 81 124 1.0 3.0 0.00 0.00 0.00 78 991.7
20260906131538 81 146 1.0 3.0 0.00 0.00 0.00 79 991.7
20260906130040 80 125 0.0 3.0 0.00 0.00 0.00 79 991.6
20260906124533 80 110 0.0 1.0 0.00 0.00 0.00 79 991.5
20260906123031 80 111 0.0 0.0 0.00 0.00 0.00 79 991.4
20260906121530 80 111 0.0 0.0 0.00 0.00 0.00 79 991.2
20260906120028 80 111 0.0 0.0 0.00 0.00 0.00 79 991.1
20260906114526 80 111 0.0 0.0 0.00 0.00 0.00 78 990.9
20260906113026 80 111 0.0 1.0 0.00 0.00 0.00 78 990.8
20260906111523 81 111 0.0 2.0 0.00 0.00 0.00 77 990.7
20260906110023 81 111 0.0 2.0 0.00 0.00 0.00 76 990.7
20260906104520 81 208 0.0 0.0 0.00 0.00 0.00 76 990.6
20260906103018 81 208 0.0 0.0 0.00 0.00 0.00 75 990.5
20260906101517 82 208 0.0 0.0 0.00 0.00 0.00 74 990.5
20260906100015 82 208 0.0 0.0 0.00 0.00 0.00 74 990.2
20260906094516 82 208 0.0 0.0 0.00 0.00 0.00 73 990.1
20260906093019 82 208 0.0 0.0 0.00 0.00 0.00 73 990.0
20260906091512 83 208 0.0 1.0 0.00 0.00 0.00 73 989.8
20260906090010 83 208 0.0 1.0 0.00 0.00 0.00 72 989.8
20260906084514 83 133 0.0 3.0 0.00 0.00 0.00 72 989.8
20260906083008 83 135 0.0 3.0 0.00 0.00 0.00 72 989.8
20260906081507 84 181 0.0 3.0 0.00 0.00 0.00 71 989.6
20260906080005 84 98 0.0 3.0 0.00 0.00 0.00 71 989.8
20260906074505 84 200 0.0 2.0 0.00 0.00 0.00 70 989.8
20260906073002 85 219 0.0 1.0 0.00 0.00 0.00 70 990.0
20260906071602 85 212 0.0 3.0 0.00 0.00 0.00 68 990.1
20260906070101 85 213 0.0 2.0 0.00 0.00 0.00 67 990.2
20260906064557 85 162 0.0 2.0 0.00 0.00 0.00 67 990.1
20260906063056 86 129 0.0 2.0 0.00 0.00 0.00 66 990.1
20260906061555 86 206 0.0 1.0 0.00 0.00 0.00 65 990.1
20260906060059 86 206 0.0 3.0 0.00 0.00 0.00 64 990.2
20260906054551 86 190 0.0 2.0 0.00 0.00 0.00 63 990.0
20260906053047 87 136 0.0 5.0 0.00 0.00 0.00 63 990.1
20260906051550 87 166 0.0 2.0 0.00 0.00 0.00 62 990.2
20260906050047 87 147 0.0 2.0 0.00 0.00 0.00 61 990.2
20260906044545 88 181 1.0 4.0 0.00 0.00 0.00 61 990.2
20260906043043 88 101 1.0 4.0 0.00 0.00 0.00 60 990.1
20260906041546 88 98 0.0 5.0 0.00 0.00 0.00 59 990.0
20260906040047 89 180 1.0 5.0 0.00 0.00 0.00 59 990.0
20260906034540 89 180 1.0 5.0 0.00 0.00 0.00 58 990.1
20260906033039 89 108 0.0 3.0 0.00 0.00 0.00 56 990.0
20260906031539 89 106 1.0 5.0 0.00 0.00 0.00 56 990.1
20260906030040 89 132 1.0 5.0 0.00 0.00 0.00 56 990.2
20260906024538 90 107 2.0 7.0 0.00 0.00 0.00 55 990.0
20260906023044 90 105 1.0 7.0 0.00 0.00 0.00 54 989.8
20260906021538 90 105 3.0 7.0 0.00 0.00 0.00 54 989.6
20260906020039 91 118 2.0 7.0 0.00 0.00 0.00 55 989.4
20260906014541 92 118 3.0 12.0 0.00 0.00 0.00 53 989.2
20260906013036 93 141 4.0 10.0 0.00 0.00 0.00 50 988.9
20260906011535 95 77 4.0 14.0 0.00 0.00 0.00 46 988.4
20260906010034 96 130 2.0 4.0 0.00 0.00 0.00 42 988.1
20260906004534 97 101 2.0 5.0 0.00 0.00 0.00 41 988.1
20260906003033 97 118 2.0 5.0 0.00 0.00 0.00 40 988.1
20260906001533 98 101 3.0 10.0 0.00 0.00 0.00 39 988.1
20260906000032 98 110 1.0 9.0 0.00 0.00 0.00 39 988.0
20260905234531 98 80 2.0 5.0 0.00 0.00 0.00 39 987.8
20260905233030 98 155 1.0 6.0 0.00 0.00 0.00 38 987.8
20260905231528 99 125 1.0 6.0 0.00 0.00 0.00 38 987.9
20260905230027 99 105 2.0 7.0 0.00 0.00 0.00 37 987.8
20260905224526 99 158 3.0 5.0 0.00 0.00 0.00 37 987.9
20260905223025 99 98 1.0 6.0 0.00 0.00 0.00 37 987.8
20260905221534 100 150 3.0 6.0 0.00 0.00 0.00 36 988.0
20260905220022 100 360 1.0 6.0 0.00 0.00 0.00 36 988.1
20260905214520 101 82 3.0 7.0 0.00 0.00 0.00 37 988.3
20260905213029 100 203 0.0 5.0 0.00 0.00 0.00 38 988.4
20260905211519 99 1 1.0 5.0 0.00 0.00 0.00 38 988.6
20260905210018 100 118 3.0 8.0 0.00 0.00 0.00 39 988.8
20260905204509 99 44 4.0 8.0 0.00 0.00 0.00 40 989.0
20260905203007 98 260 2.0 6.0 0.00 0.00 0.00 41 989.2
20260905201506 98 207 1.0 6.0 0.00 0.00 0.00 40 989.4
20260905200004 98 86 3.0 8.0 0.00 0.00 0.00 42 989.7
20260905194559 98 58 1.0 6.0 0.00 0.00 0.00 41 989.8
20260905193056 97 105 2.0 6.0 0.00 0.00 0.00 42 990.0
20260905191556 98 243 1.0 9.0 0.00 0.00 0.00 43 990.3
20260905190104 96 132 1.0 6.0 0.00 0.00 0.00 46 990.7
20260905184605 96 312 1.0 8.0 0.00 0.00 0.00 44 990.9
20260905183048 96 155 3.0 8.0 0.00 0.00 0.00 45 991.1
20260905181545 96 98 3.0 8.0 0.00 0.00 0.00 46 991.3
20260905180043 94 252 3.0 6.0 0.00 0.00 0.00 46 991.5
20260905174546 94 81 1.0 7.0 0.00 0.00 0.00 48 991.7
20260905173039 93 79 2.0 7.0 0.00 0.00 0.00 48 991.9
20260905171534 92 281 0.0 5.0 0.00 0.00 0.00 51 992.0
20260905170035 93 1 2.0 6.0 0.00 0.00 0.00 51 992.1
20260905164530 93 94 1.0 5.0 0.00 0.00 0.00 52 992.3
20260905163027 91 293 2.0 5.0 0.00 0.00 0.00 54 992.3
20260905161523 91 95 1.0 4.0 0.00 0.00 0.00 55 992.3
20260905160022 90 176 1.0 6.0 0.00 0.00 0.00 56 992.3
20260905154516 90 270 1.0 6.0 0.00 0.00 0.00 58 992.3
20260905153017 89 243 0.0 3.0 0.00 0.00 0.00 59 992.3